Location: Audruicq
(50.8780°N, 2.0797°E)
Time: 11:23:57
(UTC+00:00)

Cosmos 540 Rocket - Pass Details

Date: 15 May 2026
Orbit: 735 x 747 km, 74.1° (Epoch: 6 June)

Event Time Altitude Azimuth Distance (km) Brightness Sun altitude
Exits shadow 22:07:43 18° 199° (SSW) 1,784 5.0 -16.7°
Maximum altitude 22:11:36 84° 113° (ESE) 758 3.4 -16.9°
Drops below altitude 10° 22:16:46 10° 25° (NNE) 2,274 6.5 -17.3°
Sets 22:19:08 0° 25° (NNE) 3,201 7.4 -17.4°
